STARLINK-11249 [DTC]

Last updated on Sat Sep 28 2024 00:02:03 GMT+0000 (Coordinated Universal Time)

1 60728U 24152J 24271.53167800 .00003257 00000+0 31728-4 0 9994 2 60728 53.1602 199.7417 0001143 95.4639 264.6509 15.69715349 5888
UTC large
Height (km)
Speed (km/s)
/
Latitude / Longitude
Inclination (degrees)
Orbital Period (minutes)
Azimuth
Elevation
Range (km)
Doppler Factor

Next 0 passes for location: London (51.5072 / 0.1276)

Sorry there are no passes over London.